Change the Weather History Date:

Monday, May 5, 2014

  Actual Average Record
Temperature  
Mean Temperature 73 °F 64 °F  
Max Temperature 85 °F 75 °F 91 °F (2012)
Min Temperature 61 °F 52 °F 39 °F (2005)
Degree Days  
Heating Degree Days 0 4  
Month to date heating degree days 28 20  
Since 1 July heating degree days 4891 4338  
Cooling Degree Days 8 2  
Month to date cooling degree days 11 10  
Year to date cooling degree days 22 41  
Growing Degree Days 22 (Base 50)    
Moisture  
Dew Point 52 °F    
Average Humidity 56    
Maximum Humidity 78    
Minimum Humidity 33    
Precipitation  
Precipitation 0.00 in 0.20 in 0.96 in (1961)
Month to date precipitation 0.00 0.97  
Year to date precipitation 13.46 16.61  
Sea Level Pressure  
Sea Level Pressure 29.81 in    
Wind  
Wind Speed 11 mph (SSW)    
Max Wind Speed 22 mph    
Max Gust Speed 27 mph    
Visibility 10 miles    
Events      
T = Trace of Precipitation, MM = Missing Value Source: NWS Daily Summary

Daily Weather History Graph

Daily Weather History Graph

Search for Another Location

Airport or City:

Trip Planner

Search our weather history database for the weather conditions in past years. The results will help you decide how hot, cold, wet, or windy it might be!

Date:

Astronomy

May. 05, 2014 Rise Set
Actual Time 5:59 AM CDT 7:51 PM CDT
Civil Twilight 5:30 AM CDT 8:19 PM CDT
Nautical Twilight 4:56 AM CDT 8:54 PM CDT
Astronomical Twilight 4:19 AM CDT 9:30 PM CDT
Moon 11:18 AM CDT (5/5) 12:35 AM CDT (5/5)
Length of Visible Light 14h 48m
Length of Day
13h 52m
Waxing Crescent, 37% of the Moon is Illuminated
May 5
Waxing Crescent
May 6
First Quarter
May 14
Full
May 21
Last Quarter
May 28
New

Hourly Weather History & Observations

Time (CDT) Temp. Heat Index Dew Point Humidity Pressure Visibility Wind Dir Wind Speed Gust Speed Precip Events Conditions
12:53 AM 73.0 °F - 52.0 °F 48% 29.84 in 10.0 mi SSW 13.8 mph - N/A   Clear
1:53 AM 71.1 °F - 52.0 °F 51% 29.83 in 10.0 mi SSW 10.4 mph - N/A   Clear
2:53 AM 68.0 °F - 52.0 °F 56% 29.83 in 10.0 mi South 3.5 mph - N/A   Clear
3:53 AM 64.0 °F - 53.1 °F 67% 29.83 in 10.0 mi SSE 4.6 mph - N/A   Clear
4:53 AM 61.0 °F - 53.1 °F 75% 29.85 in 10.0 mi SE 4.6 mph - N/A   Clear
5:53 AM 62.1 °F - 52.0 °F 70% 29.85 in 10.0 mi East 4.6 mph - N/A   Clear
6:53 AM 63.0 °F - 54.0 °F 72% 29.85 in 10.0 mi SE 5.8 mph - N/A   Clear
7:53 AM 68.0 °F - 54.0 °F 61% 29.86 in 10.0 mi South 5.8 mph - N/A   Clear
8:53 AM 72.0 °F - 54.0 °F 53% 29.86 in 10.0 mi SSW 11.5 mph 18.4 mph N/A   Clear
9:53 AM 75.0 °F - 57.0 °F 53% 29.85 in 10.0 mi South 10.4 mph - N/A   Clear
10:53 AM 78.1 °F - 55.0 °F 45% 29.86 in 10.0 mi SSW 13.8 mph - N/A   Clear
11:53 AM 81.0 °F 80.8 °F 55.9 °F 42% 29.84 in 10.0 mi SSW 12.7 mph - N/A   Clear
12:53 PM 82.4 °F 82.0 °F 57.2 °F 42% 29.83 in 10.0 mi SSW 15.0 mph 23.0 mph N/A   Clear
1:53 PM 84.9 °F 84.4 °F 59.0 °F 41% 29.80 in 10.0 mi SW 18.4 mph 23.0 mph N/A   Clear
2:53 PM 84.9 °F 83.6 °F 55.0 °F 36% 29.78 in 10.0 mi SSW 17.3 mph 26.5 mph N/A   Clear
3:53 PM 84.9 °F 83.3 °F 54.0 °F 34% 29.76 in 10.0 mi SSW 16.1 mph - N/A   Clear
4:53 PM 84.9 °F 83.2 °F 53.1 °F 33% 29.74 in 10.0 mi SSW 18.4 mph 25.3 mph N/A   Clear
5:53 PM 82.9 °F - 51.1 °F 33% 29.74 in 10.0 mi SSW 15.0 mph 20.7 mph N/A   Clear
6:53 PM 80.1 °F - 48.0 °F 32% 29.74 in 10.0 mi SSW 10.4 mph 21.9 mph N/A   Clear
7:53 PM 77.0 °F - 46.9 °F 34% 29.75 in 10.0 mi SSW 10.4 mph - N/A   Clear
8:53 PM 75.0 °F - 46.0 °F 36% 29.77 in 10.0 mi SSW 10.4 mph - N/A   Clear
9:53 PM 73.9 °F - 46.0 °F 37% 29.78 in 10.0 mi SSW 13.8 mph - N/A   Clear
10:53 PM 73.4 °F - 46.4 °F 38% 29.79 in 10.0 mi SSW 13.8 mph - N/A   Clear
11:53 PM 71.1 °F - 48.0 °F 44% 29.78 in 10.0 mi SSW 12.7 mph - N/A   Clear